, IN

(GMT )
Eagle Creek

Weather History for KEYE - December, 2013

Change the Weather History Date:

Tuesday, December 10, 2013

  Actual Average Record
Temperature  
Mean Temperature 18 °F 33 °F  
Max Temperature 26 °F 40 °F 57 °F (1996)
Min Temperature 9 °F 26 °F 9 °F (2013)
Degree Days  
Heating Degree Days 47 32  
Month to date heating degree days 322 300  
Since 1 July heating degree days 1500 1324  
Cooling Degree Days 0 0  
Month to date cooling degree days 0 0  
Year to date cooling degree days 1006 1058  
Moisture  
Dew Point 10 °F    
Average Humidity 67    
Maximum Humidity 83    
Minimum Humidity 50    
Precipitation  
Precipitation T in 0.08 in 0.63 in (1999)
Month to date precipitation 0.26 0.87  
Year to date precipitation 38.44 38.58  
Sea Level Pressure  
Sea Level Pressure 30.23 in    
Wind  
Wind Speed 8 mph (WSW)    
Max Wind Speed 18 mph    
Max Gust Speed 27 mph    
Visibility 8 miles    
Events Snow    
T = Trace of Precipitation, MM = Missing Value Source: NWS Daily Summary

Daily Weather History Graph

Daily Weather History Graph

Search for Another Location

Airport or City:

Trip Planner

Search our weather history database for the weather conditions in past years. The results will help you decide how hot, cold, wet, or windy it might be!

Date:

Astronomy

Dec. 10, 2013 Rise Set
Actual Time 7:55 AM EST 5:20 PM EST
Civil Twilight 7:25 AM EST 5:50 PM EST
Nautical Twilight 6:51 AM EST 6:24 PM EST
Astronomical Twilight 6:18 AM EST 6:57 PM EST
Moon 1:20 PM EST (12/10) 1:14 AM EST (12/10)
Length of Visible Light 10h 25m
Length of Day
9h 24m
First Quarter, 61% of the Moon is Illuminated
Dec 10
First Quarter
Dec 17
Full
Dec 25
Last Quarter
Jan 1
New
Jan 7
First Quarter

Hourly Weather History & Observations

Time (EST) Temp. Windchill Dew Point Humidity Pressure Visibility Wind Dir Wind Speed Gust Speed Precip Events Conditions
12:00 AM 19.9 °F 10.1 °F 12.9 °F 74% 30.21 in 3.0 mi NW 8.1 mph - 0.00 in Snow Light Snow
12:05 AM 19.0 °F 10.0 °F 12.9 °F 77% 30.21 in 2.5 mi NW 6.9 mph - 0.00 in Snow Light Snow
12:17 AM 19.0 °F 9.0 °F 12.9 °F 77% 30.21 in 1.5 mi WNW 8.1 mph - 0.00 in Snow Light Snow
12:27 AM 18.0 °F 12.7 °F 10.9 °F 74% 30.21 in 2.5 mi West 3.5 mph - 0.00 in Snow Light Snow
12:41 AM 18.0 °F 11.1 °F 12.9 °F 81% 30.21 in 2.5 mi WSW 4.6 mph - 0.00 in Snow Light Snow
12:50 AM 17.6 °F 12.3 °F 12.2 °F 79% 30.21 in 3.0 mi Variable 3.5 mph - 0.00 in Snow Light Snow
12:53 AM 18.0 °F 12.7 °F 12.9 °F 81% 30.24 in 3.0 mi WSW 3.5 mph - 0.00 in Snow Light Snow
1:53 AM 19.0 °F 12.3 °F 12.9 °F 77% 30.23 in 10.0 mi West 4.6 mph - 0.00 in   Overcast
2:53 AM 19.0 °F 9.0 °F 10.9 °F 71% 30.22 in 10.0 mi NW 8.1 mph - N/A   Overcast
3:53 AM 18.0 °F 6.9 °F 10.0 °F 71% 30.22 in 10.0 mi WNW 9.2 mph - N/A   Overcast
4:53 AM 17.1 °F 8.7 °F 9.0 °F 71% 30.20 in 10.0 mi WNW 5.8 mph - N/A   Overcast
5:53 AM 17.1 °F 10.0 °F 9.0 °F 71% 30.21 in 10.0 mi West 4.6 mph - N/A   Scattered Clouds
6:45 AM 12.9 °F -0.9 °F 7.0 °F 77% 30.19 in 10.0 mi NW 11.5 mph - N/A   Mostly Cloudy
6:53 AM 12.9 °F 1.6 °F 7.0 °F 77% 30.23 in 10.0 mi NW 8.1 mph - N/A   Mostly Cloudy
7:53 AM 10.9 °F 4.7 °F 6.1 °F 81% 30.22 in 10.0 mi SSW 3.5 mph - N/A   Clear
8:53 AM 12.0 °F 1.5 °F 7.0 °F 80% 30.24 in 10.0 mi SSW 6.9 mph - N/A   Clear
9:53 AM 16.0 °F 2.3 °F 7.0 °F 68% 30.22 in 10.0 mi SW 12.7 mph 18.4 mph N/A   Clear
10:53 AM 19.0 °F 8.2 °F 9.0 °F 65% 30.22 in 10.0 mi SW 9.2 mph 21.9 mph N/A   Clear
11:53 AM 21.9 °F 10.4 °F 9.0 °F 58% 30.19 in 10.0 mi SW 11.5 mph 19.6 mph N/A   Clear
12:53 PM 24.1 °F 10.6 °F 8.1 °F 51% 30.17 in 10.0 mi WSW 17.3 mph 26.5 mph N/A   Clear
1:53 PM 25.0 °F 14.2 °F 9.0 °F 51% 30.18 in 10.0 mi WSW 11.5 mph 23.0 mph N/A   Clear
2:53 PM 26.1 °F 15.6 °F 10.0 °F 51% 30.19 in 10.0 mi WSW 11.5 mph 21.9 mph N/A   Clear
3:53 PM 26.1 °F 16.2 °F 10.9 °F 53% 30.20 in 10.0 mi WSW 10.4 mph 21.9 mph N/A   Clear
4:53 PM 26.1 °F 18.4 °F 12.0 °F 55% 30.24 in 10.0 mi WSW 6.9 mph - N/A   Clear
5:53 PM 25.0 °F 17.1 °F 12.0 °F 58% 30.26 in 10.0 mi WSW 6.9 mph - N/A   Clear
6:53 PM 21.9 °F 14.5 °F 10.9 °F 63% 30.28 in 10.0 mi SW 5.8 mph - N/A   Clear
7:53 PM 19.9 °F 12.1 °F 10.9 °F 68% 30.27 in 10.0 mi SW 5.8 mph - N/A   Clear
8:53 PM 19.0 °F 10.0 °F 10.9 °F 71% 30.30 in 10.0 mi SW 6.9 mph - N/A   Clear
9:53 PM 19.0 °F 13.9 °F 10.0 °F 68% 30.33 in 10.0 mi WSW 3.5 mph - N/A   Clear
10:53 PM 18.0 °F 12.7 °F 10.0 °F 71% 30.35 in 10.0 mi WSW 3.5 mph - N/A   Clear
11:53 PM 16.0 °F 8.8 °F 10.0 °F 77% 30.37 in 10.0 mi SW 4.6 mph - N/A   Clear